SL-12 DEB, 43527

Orbit data source: Space-Track

SL-12 DEB, 43527 is space debris in HEO originally from a launch on Mon, 01 Mar 2010 UTC launched from the Tyuratam Missile And Space Complex (TTMTR). Debris objects in space refer to the collection of defunct objects orbiting the Earth. Examples of debris include non-operational satellites, rocket bodies, and fragments generated from explosions, collisions, or faulty payload assembly.

Loading next visibility...
Identifier
43527, 2010-007Z
Orbit
HEO
Country
Flag of CISCIS
Related business
Manufacturer
RKKE
Mission
Spacecraft
Bus & Motor
Unknown
Mass
Unknown
Launch date (UTC)
2010-03-01 (17 years ago)
Launch vehicle
Unknown
Launch site
Tyuratam Missile And Space Complex (TTMTR)
Object type
Payload
Rocket body
Debris
Shape & HBR
Unknown shape, 0.6 m
Radar Cross Section
Medium (>0.1 m² and <1 m²)

Expand to show TLE details & history
Last TLE update: 3 days ago

TLE from 3 days ago
0 SL-12 DEB
1 43527U 10007Z   26254.15880417 -.00000254  00000-0 -44732-2 0  9997
2 43527  65.0294 156.0042 5537759 291.6763  19.6406  4.26531858127639
Epoch: 2026-09-11T03:48Z
TLE epoch observation values (Epoch: 2026-09-11T03:48:40.680Z)
Latitude
0.00014°
Longitude
108.64514°
Altitude
2,877.026 km
Speed
7.832 km/s
True Right ascension
10h 24m 00s
True Declination
0° 00' 00"
Sunlit
Object was in daylight at epoch
Visualization orbit readout
Latitude
Unknown
Longitude
Unknown
Altitude
Unknown
Speed
Unknown
Apparent Right ascension
Unknown
Apparent Declination
Unknown
Sunlit
N/A
Visualization observer readout
Local Sidereal Time
21:49:57
Azimuth
Unknown
Elevation
Unknown
Doppler factor
Unknown
Orbital elements
Apogee altitude
18,575.065 km
Perigee altitude
788.096 km
Semi-major axis
16,059.718 km
Eccentricity
0.55378
Inclination
65.0294°
RAAN
156.0042°
Arg. of periapsis
291.6763°
True anomaly
68.45637°
Mean anomaly
19.6406°
Eccentric anomaly
40.06185°
Mean motion
1.06644 °/min
Orbital period
337.57 mins
BSTAR
-0.0044732
Loading maneuver chart data...
Computing Atmospheric mass density...
Loading historical data...
Loading historical data...
Loading historical data...
Loading historical data...
Loading historical data...
Loading historical data...
Loading historical data...

Documentation

Showing up to 5 results
|